Powrót do katalogu

COSMOS 970 DEB

AktywnyLEO
NORAD 12864·DEBRIS·🇷🇺 Russia

Wystrzelony Dec 21, 1977 z Baikonur Cosmodrome

Loading…

Następne Przeloty (najbliższe 24 godziny)

TLE

ŚwieżeSource: Space-Track

Epoka: Sep 14, 2026, 07:07 UTC

1 12864U 77121AS  26257.29694380  .00000763  00000-0  60702-3 0  9996
2 12864  65.8327   4.5533 0100347 295.9449  93.5345 13.94642782330833

Śledź COSMOS 970 DEB w czasie rzeczywistym z AllMySat

Download on the App Store